Weather History for Saint Denis, Reunion Island

Change the Weather History Date:

Monday, May 12, 2014

  Actual Average Record
Temperature  
Mean Temperature 74 °F -  
Max Temperature 82 °F 78 °F 84 °F (2008)
Min Temperature 66 °F 67 °F 65 °F (2013)
Cooling Degree Days 9    
Growing Degree Days 24 (Base 50)    
Moisture  
Dew Point 66 °F    
Average Humidity 71    
Maximum Humidity 88    
Minimum Humidity 51    
Precipitation  
Precipitation 0.00 in - - ()
Sea Level Pressure  
Sea Level Pressure 29.99 in    
Wind  
Wind Speed 7 mph ()    
Max Wind Speed 16 mph    
Max Gust Speed -    
Visibility 6.1 miles    
Events      
Averages and records for this station are not official NWS values.
T = Trace of Precipitation, MM = Missing Value Source: Averaged Metar Reports

Daily Weather History Graph

Daily Weather History Graph

Search for Another Location

Airport:

Trip Planner

Search our weather history database for the weather conditions in past years. The results will help you decide how hot, cold, wet, or windy it might be!

Date:

Astronomy

May. 12, 2014 Rise Set
Actual Time 6:39 AM RET 5:49 PM RET
Civil Twilight 6:15 AM RET 6:12 PM RET
Nautical Twilight 5:49 AM RET 6:39 PM RET
Astronomical Twilight 5:22 AM RET 7:05 PM RET
Moon 4:07 PM RET (5/12) 4:08 AM RET (5/12)
Length of Visible Light 11h 56m
Length of Day
11h 10m
Waxing Gibbous, 93% of the Moon is Illuminated
May 12
Waxing Gibbous
May 14
Full
May 21
Last Quarter
May 28
New
Jun 6
First Quarter

Hourly Weather History & Observations

Time (RET) Temp. Heat Index Dew Point Humidity Pressure Visibility Wind Dir Wind Speed Gust Speed Precip Events Conditions
12:00 AM 73 °F - 63 °F 62% 30.04 in 37 mi SE 10.4 mph - -   Clear
12:00 AM 73.4 °F - 62.6 °F 69% 30.04 in 6.2 mi SE 10.4 mph - N/A   Unknown
12:30 AM 73.4 °F - 62.6 °F 69% 30.01 in 6.2 mi ESE 6.9 mph - N/A   Unknown
1:00 AM 72 °F - 63 °F 65% 30.02 in 37 mi SSE 5.8 mph - -   Clear
1:00 AM 71.6 °F - 62.6 °F 73% 30.01 in 6.2 mi SSE 5.8 mph - N/A   Unknown
1:30 AM 71.6 °F - 62.6 °F 73% 30.01 in 6.2 mi Calm Calm - N/A   Unknown
2:00 AM 69 °F - 64 °F 78% 30.02 in 37 mi SSE 3.5 mph - -   Clear
2:00 AM 69.8 °F - 64.4 °F 83% 30.01 in 6.2 mi SSE 3.5 mph - N/A   Unknown
2:30 AM 68.0 °F - 64.4 °F 88% 30.01 in 6.2 mi Variable 2.3 mph - N/A   Unknown
3:00 AM 67 °F - 63 °F 83% 30.01 in 37 mi SSE 3.5 mph - -   Clear
3:00 AM 68.0 °F - 62.6 °F 83% 30.01 in 6.2 mi SSE 3.5 mph - N/A   Unknown
3:30 AM 68.0 °F - 62.6 °F 83% 29.98 in 6.2 mi South 4.6 mph - N/A   Scattered Clouds
4:00 AM 68 °F - 63 °F 79% 30.00 in 37 mi South 5.8 mph - -   Clear
4:00 AM 68.0 °F - 62.6 °F 83% 29.98 in 6.2 mi South 5.8 mph - N/A   Mostly Cloudy
4:30 AM 68.0 °F - 62.6 °F 83% 29.98 in 6.2 mi South 6.9 mph - N/A   Mostly Cloudy
5:00 AM 68 °F - 63 °F 80% 30.00 in 6 mi South 4.6 mph - -   Mostly Cloudy
5:00 AM 68.0 °F - 62.6 °F 83% 29.98 in 6.2 mi South 4.6 mph - N/A   Mostly Cloudy
5:30 AM 68.0 °F - 62.6 °F 83% 29.98 in 6.2 mi South 4.6 mph - N/A   Scattered Clouds
6:00 AM 67 °F - 63 °F 81% 30.00 in 6 mi South 4.6 mph - -   Scattered Clouds
6:00 AM 66.2 °F - 62.6 °F 88% 29.98 in 6.2 mi South 4.6 mph - N/A   Partly Cloudy
6:30 AM 68.0 °F - 62.6 °F 83% 30.01 in 6.2 mi South 5.8 mph - N/A   Partly Cloudy
7:00 AM 67 °F - 62 °F 79% 30.02 in 6 mi South 8.1 mph - -   Scattered Clouds
7:00 AM 68.0 °F - 62.6 °F 83% 30.01 in 6.2 mi South 8.1 mph - N/A   Partly Cloudy
7:30 AM 71.6 °F - 62.6 °F 73% 30.01 in 6.2 mi SSE 6.9 mph - N/A   Partly Cloudy
8:00 AM 74 °F - 64 °F 64% 30.03 in 6 mi SE 6.9 mph - -   Scattered Clouds
8:00 AM 75.2 °F - 64.4 °F 69% 30.01 in 6.2 mi SE 6.9 mph - N/A   Partly Cloudy
8:30 AM 77.0 °F - 64.4 °F 65% 30.01 in 6.2 mi ESE 11.5 mph - N/A   Partly Cloudy
9:00 AM 78 °F - 65 °F 55% 30.04 in 6 mi East 12.7 mph - -   Scattered Clouds
9:00 AM 78.8 °F - 64.4 °F 61% 30.04 in 6.2 mi East 12.7 mph - N/A   Partly Cloudy
9:37 AM 80.6 °F 82.7 °F 66.2 °F 61% 30.04 in 6.2 mi East 12.7 mph - N/A   Partly Cloudy
10:00 AM 81 °F - 66 °F 51% 30.03 in 6 mi East 13.8 mph - -   Scattered Clouds
10:00 AM 80.6 °F 82.7 °F 66.2 °F 61% 30.01 in 6.2 mi East 13.8 mph - N/A   Partly Cloudy
10:30 AM 80.6 °F 82.7 °F 66.2 °F 61% 30.01 in 6.2 mi East 12.7 mph - N/A   Partly Cloudy
11:00 AM 82 °F - 68 °F 53% 30.01 in 6 mi East 16.1 mph - -   Scattered Clouds
11:00 AM 82.4 °F 85.4 °F 68.0 °F 62% 30.01 in 6.2 mi East 16.1 mph - N/A   Partly Cloudy
11:30 AM 82.4 °F 85.4 °F 68.0 °F 62% 30.01 in 6.2 mi East 16.1 mph - N/A   Partly Cloudy
12:00 PM 82 °F - 68 °F 53% 30.00 in 6 mi East 15.0 mph - -   Scattered Clouds
12:00 PM 82.4 °F 85.4 °F 68.0 °F 62% 29.98 in 6.2 mi East 15.0 mph - N/A   Partly Cloudy
12:30 PM 82.4 °F 85.4 °F 68.0 °F 62% 29.98 in 6.2 mi East 15.0 mph - N/A   Partly Cloudy
1:00 PM 82 °F - 69 °F 56% 29.97 in 6 mi East 13.8 mph - -   Scattered Clouds
1:00 PM 82.4 °F 85.4 °F 68.0 °F 62% 29.95 in 6.2 mi East 13.8 mph - N/A   Partly Cloudy
1:30 PM 82.4 °F 86.3 °F 69.8 °F 66% 29.95 in 6.2 mi East 13.8 mph - N/A   Partly Cloudy
2:00 PM 82 °F - 68 °F 54% 29.95 in 6 mi East 12.7 mph - -   Scattered Clouds
2:00 PM 82.4 °F 85.4 °F 68.0 °F 62% 29.95 in 6.2 mi East 12.7 mph - N/A   Partly Cloudy
2:30 PM 82.4 °F 85.4 °F 68.0 °F 62% 29.95 in 6.2 mi East 10.4 mph - N/A   Partly Cloudy
3:00 PM 82 °F - 69 °F 55% 29.94 in 6 mi East 9.2 mph - -   Scattered Clouds
3:00 PM 82.4 °F 85.4 °F 68.0 °F 62% 29.92 in 6.2 mi East 9.2 mph - N/A   Partly Cloudy
4:00 PM 81 °F - 69 °F 58% 29.94 in 6 mi East 8.1 mph - -   Partly Cloudy
4:00 PM 80.6 °F 83.2 °F 68.0 °F 65% 29.92 in 6.2 mi East 8.1 mph - N/A   Scattered Clouds
4:30 PM 80.6 °F 83.9 °F 69.8 °F 70% 29.92 in 6.2 mi East 8.1 mph - N/A   Scattered Clouds
5:00 PM 80 °F - 69 °F 60% 29.94 in 6 mi East 6.9 mph - -   Scattered Clouds
5:00 PM 80.6 °F 83.2 °F 68.0 °F 65% 29.92 in 6.2 mi East 6.9 mph - N/A   Partly Cloudy
5:30 PM 78.8 °F - 68.0 °F 69% 29.92 in 6.2 mi East 6.9 mph - N/A   Partly Cloudy
6:00 PM 78 °F - 68 °F 65% 29.95 in 6 mi East 4.6 mph - -   Scattered Clouds
6:00 PM 77.0 °F - 68.0 °F 74% 29.95 in 6.2 mi East 4.6 mph - N/A   Partly Cloudy
6:30 PM 77.0 °F - 68.0 °F 74% 29.95 in 6.2 mi SE 4.6 mph - N/A   Partly Cloudy
7:00 PM 75 °F - 68 °F 74% 29.96 in 6 mi South 5.8 mph - -   Scattered Clouds
7:00 PM 75.2 °F - 68.0 °F 78% 29.95 in 6.2 mi South 5.8 mph - N/A   Partly Cloudy
7:34 PM 75.2 °F - 68.0 °F 78% 29.98 in 6.2 mi South 4.6 mph - N/A   Partly Cloudy
8:00 PM 74 °F - 68 °F 77% 29.99 in 6 mi South 6.9 mph - -   Partly Cloudy
8:00 PM 73.4 °F - 68.0 °F 83% 29.98 in 6.2 mi South 6.9 mph - N/A   Scattered Clouds
8:30 PM 73.4 °F - 68.0 °F 83% 29.98 in 6.2 mi South 8.1 mph - N/A   Scattered Clouds
9:00 PM 73 °F - 67 °F 76% 29.99 in 6 mi South 8.1 mph - -   Scattered Clouds
9:00 PM 73.4 °F - 68.0 °F 83% 29.98 in 6.2 mi South 8.1 mph - N/A   Partly Cloudy
9:30 PM 71.6 °F - 66.2 °F 83% 29.98 in 6.2 mi South 6.9 mph - N/A   Partly Cloudy
10:00 PM 72 °F - 65 °F 74% 29.99 in 6 mi South 8.1 mph - -   Scattered Clouds
10:00 PM 71.6 °F - 66.2 °F 83% 29.98 in 6.2 mi South 8.1 mph - N/A   Partly Cloudy
10:30 PM 71.6 °F - 66.2 °F 83% 29.98 in 6.2 mi South 8.1 mph - N/A   Partly Cloudy
11:00 PM 72 °F - 65 °F 73% 29.98 in 6 mi South 9.2 mph - -   Scattered Clouds
11:00 PM 71.6 °F - 64.4 °F 78% 29.98 in 6.2 mi South 9.2 mph - N/A   Partly Cloudy
11:30 PM 73.4 °F - 64.4 °F 73% 29.98 in 6.2 mi South 8.1 mph - N/A   Partly Cloudy